COSMOS 1275 DEB, 12694

Orbit data source: Space-Track

COSMOS 1275 DEB, 12694 is space debris in LEO originally from a launch on Thu, 04 Jun 1981 UTC launched from the Plesetsk Missile And Space Complex (PKMTR). Debris objects in space refer to the collection of defunct objects orbiting the Earth. Examples of debris include non-operational satellites, rocket bodies, and fragments generated from explosions, collisions, or faulty payload assembly.

Loading next visibility...
Identifier
12694, 1981-053AN
Orbit
LEO
Country
Flag of CISCIS
Related business
Manufacturer
Unknown
Mission
Spacecraft
Bus & Motor
Unknown
Mass
Unknown
Launch date (UTC)
1981-06-04 (44 years ago)
Launch vehicle
Unknown
Launch site
Plesetsk Missile And Space Complex (PKMTR)
Object type
Payload
Rocket body
Debris
Shape & HBR
Unknown
Radar Cross Section
Small (<0.1 m²)

Expand to show TLE details & history
Last TLE update: 16 hours ago

TLE from 16 hours ago
0 COSMOS 1275 DEB
1 12694U 81053AN  25260.57530395  .00000417  00000-0  50053-3 0  9999
2 12694  83.0791 293.6324 0112712 270.6559 221.8878 13.62136706185857
Epoch: 2025-09-17T13:48Z
TLE epoch observation values (Epoch: 2025-09-17T13:48:26.261Z)
Latitude
47.93642°
Longitude
-97.91679°
Altitude
1,097.971 km
Speed
7.277 km/s
True Right ascension
07h 03m 46s
True Declination
47° 46' 23"
Sunlit
Object was in daylight at epoch
Visualization orbit readout
Latitude
Unknown
Longitude
Unknown
Altitude
Unknown
Speed
Unknown
Apparent Right ascension
Unknown
Apparent Declination
Unknown
Sunlit
N/A
Visualization observer readout
Local Sidereal Time
22:38:18
Azimuth
Unknown
Elevation
Unknown
Doppler factor
Unknown
Orbital elements
Apogee altitude
1,108.541 km
Perigee altitude
941.655 km
Semi-major axis
7,403.235 km
Eccentricity
0.01127
Inclination
83.0791°
RAAN
293.6324°
Arg. of periapsis
270.6559°
True anomaly
221.03443°
Mean anomaly
221.8878°
Eccentric anomaly
221.46022°
Mean motion
3.4073 °/min
Orbital period
105.66 mins
BSTAR
0.00050053
Loading maneuver chart data...
Computing Atmospheric mass density...
Loading historical data...
Loading historical data...
Loading historical data...
Loading historical data...
Loading historical data...
Loading historical data...
Loading historical data...

Documentation

Showing up to 5 results
|